Weather History for Kenosha, WI

Change the Weather History Date:

Wednesday, March 5, 2014

  Actual Average Record
Temperature  
Mean Temperature 16 °F -  
Max Temperature 19 °F 37 °F 63 °F (2009)
Min Temperature 14 °F 23 °F -1 °F (1978)
Degree Days  
Heating Degree Days 48    
Moisture  
Dew Point 12 °F    
Average Humidity 77    
Maximum Humidity 88    
Minimum Humidity 62    
Precipitation  
Precipitation 0.07 in - - ()
Sea Level Pressure  
Sea Level Pressure 30.41 in    
Wind  
Wind Speed 11 mph (NE)    
Max Wind Speed 18 mph    
Max Gust Speed -    
Visibility 5 miles    
Events Fog , Snow    
Averages and records for this station are not official NWS values.
T = Trace of Precipitation, MM = Missing Value Source: NWS Daily Summary

Daily Weather History Graph

Daily Weather History Graph

Search for Another Location

Airport:

Trip Planner

Search our weather history database for the weather conditions in past years. The results will help you decide how hot, cold, wet, or windy it might be!

Date:

Astronomy

Mar. 05, 2014 Rise Set
Actual Time 6:20 AM CST 5:46 PM CST
Civil Twilight 5:52 AM CST 6:14 PM CST
Nautical Twilight 5:19 AM CST 6:47 PM CST
Astronomical Twilight 4:47 AM CST 7:20 PM CST
Moon 8:39 AM CST (3/5) 11:01 PM CST (3/5)
Length of Visible Light 12h 21m
Length of Day
11h 25m
Waxing Crescent, 23% of the Moon is Illuminated
Mar 5
Waxing Crescent
Mar 8
First Quarter
Mar 16
Full
Mar 23
Last Quarter
Mar 30
New

Hourly Weather History & Observations

Time (CST) Temp. Windchill Dew Point Humidity Pressure Visibility Wind Dir Wind Speed Gust Speed Precip Events Conditions
12:09 AM 18.0 °F 7.7 °F 12.9 °F 81% 30.26 in 1.0 mi NE 8.1 mph - 0.00 in Snow Light Snow
12:25 AM 18.0 °F 6.9 °F 14.0 °F 84% 30.27 in 0.8 mi ENE 9.2 mph - 0.00 in Snow Light Snow
12:45 AM 18.0 °F 6.1 °F 14.0 °F 84% 30.27 in 1.0 mi NE 10.4 mph - 0.01 in Snow Light Snow
12:53 AM 18.0 °F 5.4 °F 14.0 °F 84% 30.31 in 1.0 mi NE 11.5 mph - 0.01 in Snow Light Snow
1:09 AM 17.1 °F 3.6 °F 14.0 °F 88% 30.26 in 1.0 mi NE 12.7 mph - 0.00 in Snow Light Snow
1:53 AM 17.1 °F 7.6 °F 14.0 °F 88% 30.33 in 1.2 mi NE 6.9 mph - 0.01 in Snow Light Snow
2:53 AM 17.1 °F 10.0 °F 14.0 °F 88% 30.35 in 1.2 mi NNE 4.6 mph - 0.01 in Snow Light Snow
3:53 AM 17.1 °F 7.6 °F 12.9 °F 84% 30.35 in 1.5 mi NE 6.9 mph - 0.01 in Snow Light Snow
4:49 AM 17.6 °F 6.4 °F 14.0 °F 86% 30.32 in 1.0 mi NE 9.2 mph - 0.01 in Snow Light Snow
4:53 AM 18.0 °F 5.4 °F 14.0 °F 84% 30.37 in 1.0 mi NE 11.5 mph - 0.01 in Snow Light Snow
5:01 AM 18.0 °F 6.9 °F 14.0 °F 84% 30.32 in 1.2 mi ENE 9.2 mph - 0.00 in Snow Light Snow
5:51 AM 17.6 °F 5.7 °F 14.0 °F 86% 30.35 in 0.5 mi NE 10.4 mph - 0.01 in Fog , Snow Snow
5:53 AM 17.1 °F 5.0 °F 14.0 °F 88% 30.40 in 0.5 mi NE 10.4 mph - 0.01 in Fog , Snow Snow
6:05 AM 17.1 °F 5.0 °F 14.0 °F 88% 30.36 in 0.5 mi NE 10.4 mph - 0.00 in Fog , Snow Snow
6:11 AM 17.1 °F 3.0 °F 12.9 °F 84% 30.37 in 1.0 mi NE 13.8 mph - 0.00 in Snow Light Snow
6:33 AM 17.1 °F 4.3 °F 12.9 °F 84% 30.37 in 0.8 mi NE 11.5 mph - 0.01 in Snow Light Snow
6:53 AM 17.1 °F 2.0 °F 12.0 °F 81% 30.43 in 0.8 mi NE 16.1 mph - 0.01 in Snow Light Snow
7:07 AM 17.1 °F 2.0 °F 12.0 °F 81% 30.38 in 0.5 mi NE 16.1 mph - 0.00 in Snow Snow
7:46 AM 17.1 °F 1.5 °F 12.0 °F 81% 30.40 in 1.0 mi NE 17.3 mph - 0.00 in Snow Light Snow
7:53 AM 17.1 °F 2.5 °F 12.0 °F 81% 30.45 in 1.2 mi ENE 15.0 mph - 0.00 in Snow Light Snow
8:08 AM 18.0 °F 2.2 °F 10.9 °F 74% 30.41 in 3.0 mi NE 18.4 mph - 0.00 in Snow Light Snow
8:25 AM 18.0 °F 2.2 °F 10.9 °F 74% 30.41 in 4.0 mi NE 18.4 mph - 0.00 in Snow Light Snow
8:53 AM 18.0 °F 2.2 °F 10.0 °F 71% 30.46 in 6.0 mi NE 18.4 mph - 0.00 in Snow Light Snow
9:53 AM 19.0 °F 3.6 °F 10.9 °F 71% 30.47 in 9.0 mi NE 18.4 mph - 0.00 in   Overcast
10:53 AM 19.0 °F 4.0 °F 10.0 °F 68% 30.47 in 10.0 mi NE 17.3 mph - N/A   Mostly Cloudy
11:53 AM 19.0 °F 4.5 °F 8.1 °F 62% 30.48 in 10.0 mi ENE 16.1 mph - N/A   Partly Cloudy
12:53 PM 19.0 °F 4.5 °F 9.0 °F 65% 30.48 in 10.0 mi ENE 16.1 mph - N/A   Clear
1:53 PM 19.0 °F 5.0 °F 9.0 °F 65% 30.48 in 10.0 mi ENE 15.0 mph - N/A   Clear
2:49 PM 19.4 °F 6.0 °F 8.6 °F 63% 30.44 in 10.0 mi NE 13.8 mph - N/A   Mostly Cloudy
2:53 PM 19.0 °F 6.8 °F 9.0 °F 65% 30.49 in 10.0 mi NE 11.5 mph - N/A   Scattered Clouds
3:53 PM 19.0 °F 6.1 °F 8.1 °F 62% 30.48 in 10.0 mi NE 12.7 mph - N/A   Clear
4:53 PM 18.0 °F 5.4 °F 8.1 °F 65% 30.48 in 10.0 mi NE 11.5 mph - N/A   Clear
5:53 PM 15.1 °F 4.2 °F 7.0 °F 70% 30.50 in 10.0 mi NNE 8.1 mph - N/A   Clear
6:53 PM 15.1 °F 3.3 °F 8.1 °F 74% 30.49 in 10.0 mi NNE 9.2 mph - N/A   Clear
7:53 PM 15.1 °F 3.3 °F 9.0 °F 77% 30.49 in 10.0 mi NNE 9.2 mph - N/A   Clear
8:53 PM 14.0 °F 3.9 °F 10.0 °F 84% 30.48 in 10.0 mi NE 6.9 mph - N/A   Clear
9:53 PM 19.0 °F 6.1 °F 10.9 °F 71% 30.48 in 10.0 mi East 12.7 mph - N/A   Clear
10:53 PM 19.0 °F 6.1 °F 12.0 °F 74% 30.47 in 10.0 mi East 12.7 mph - N/A   Clear
11:53 PM 19.9 °F 7.3 °F 12.0 °F 71% 30.46 in 10.0 mi ESE 12.7 mph - N/A   Clear